Bowling Green, KY

2:41 PM CDT on July 22, 2017 (GMT -0500)
Bowling Green-Warren County Regional

Weather History for KBWG - November, 2013

Change the Weather History Date:

Friday, November 22, 2013

  Actual Average Record
Temperature  
Mean Temperature 52 °F 46 °F  
Max Temperature 60 °F 57 °F 78 °F (1934)
Min Temperature 44 °F 36 °F 8 °F (1880)
Degree Days  
Heating Degree Days 13 19  
Month to date heating degree days 371 334  
Since 1 July heating degree days 621 597  
Cooling Degree Days 0 0  
Month to date cooling degree days 0 0  
Year to date cooling degree days 1499 1488  
Growing Degree Days 2 (Base 50)    
Moisture  
Dew Point 52 °F    
Average Humidity 88    
Maximum Humidity 100    
Minimum Humidity 75    
Precipitation  
Precipitation 0.28 in 0.14 in 1.89 in (1940)
Month to date precipitation 2.63 2.98  
Year to date precipitation 54.46 43.85  
Snow  
Snow 0.00 in 0.00 in 3.80 in (1929)
Month to date snowfall T 0.0  
Since 1 July snowfall T T  
Since 1 September snowfall T T  
Snow Depth 0.00 in    
Sea Level Pressure  
Sea Level Pressure 30.27 in    
Wind  
Wind Speed 6 mph (WSW)    
Max Wind Speed 14 mph    
Max Gust Speed 18 mph    
Visibility 5 miles    
Events Rain    
T = Trace of Precipitation, MM = Missing Value Source: NWS Daily Summary

Daily Weather History Graph

Daily Weather History Graph

Search for Another Location

Airport or City:

Trip Planner

Search our weather history database for the weather conditions in past years. The results will help you decide how hot, cold, wet, or windy it might be!

Date:

Astronomy

Nov. 22, 2013 Rise Set
Actual Time 6:31 AM CST 4:31 PM CST
Civil Twilight 6:03 AM CST 4:59 PM CST
Nautical Twilight 5:31 AM CST 5:31 PM CST
Astronomical Twilight 5:00 AM CST 6:02 PM CST
Moon 9:01 PM CST 10:16 AM CST
Length of Visible Light 10h 56m
Length of Day
10h 00m
Waning Gibbous, 78% of the Moon is Illuminated
Nov 22
Waning Gibbous
Nov 25
Last Quarter
Dec 2
New
Dec 9
First Quarter
Dec 17
Full

Hourly Weather History & Observations

Time (CST) Temp. Windchill Dew Point Humidity Pressure Visibility Wind Dir Wind Speed Gust Speed Precip Events Conditions
12:53 AM 59.0 °F - 52.0 °F 78% 30.20 in 10.0 mi SSW 6.9 mph - N/A   Overcast
1:53 AM 59.0 °F - 52.0 °F 78% 30.22 in 10.0 mi SSW 5.8 mph - N/A   Overcast
2:53 AM 59.0 °F - 52.0 °F 78% 30.21 in 10.0 mi SSW 5.8 mph - 0.00 in   Overcast
3:53 AM 57.0 °F - 53.1 °F 87% 30.21 in 8.0 mi SSW 3.5 mph - N/A   Overcast
4:18 AM 55.4 °F - 53.6 °F 94% 30.22 in 4.0 mi South 4.6 mph - 0.00 in Rain Light Rain
4:53 AM 55.9 °F - 54.0 °F 93% 30.21 in 2.5 mi South 3.5 mph - 0.03 in Rain Light Rain
4:56 AM 55.4 °F - 53.6 °F 94% 30.22 in 3.0 mi South 3.5 mph - 0.00 in Rain Light Rain
5:26 AM 55.4 °F - 53.6 °F 94% 30.22 in 3.0 mi South 4.6 mph - 0.05 in Rain Rain
5:33 AM 55.4 °F - 53.6 °F 94% 30.23 in 3.0 mi South 3.5 mph - 0.07 in Rain Rain
5:53 AM 55.9 °F - 54.0 °F 93% 30.22 in 6.0 mi South 3.5 mph - 0.09 in Rain Light Rain
6:51 AM 55.4 °F - 55.4 °F 100% 30.22 in 5.0 mi South 4.6 mph - 0.04 in Rain Light Rain
6:53 AM 55.9 °F - 55.0 °F 97% 30.22 in 5.0 mi South 4.6 mph - 0.04 in Rain Light Rain
7:19 AM 57.2 °F - 55.4 °F 94% 30.23 in 3.0 mi SW 4.6 mph - 0.02 in Rain Light Rain
7:28 AM 57.2 °F - 55.4 °F 94% 30.23 in 2.5 mi SSW 4.6 mph - 0.02 in Rain Light Rain
7:43 AM 57.2 °F - 55.4 °F 94% 30.23 in 3.0 mi SSW 3.5 mph - 0.03 in Rain Light Rain
7:53 AM 57.0 °F - 55.0 °F 93% 30.23 in 3.0 mi Calm Calm - 0.03 in   Overcast
8:08 AM 57.2 °F - 55.4 °F 94% 30.24 in 5.0 mi SW 3.5 mph - N/A   Overcast
8:17 AM 57.2 °F - 55.4 °F 94% 30.25 in 4.0 mi WSW 3.5 mph - N/A   Overcast
8:24 AM 57.2 °F - 55.4 °F 94% 30.25 in 4.0 mi SW 4.6 mph - N/A   Overcast
8:36 AM 57.2 °F - 55.4 °F 94% 30.25 in 1.8 mi SW 5.8 mph - N/A   Overcast
8:42 AM 57.2 °F - 55.4 °F 94% 30.25 in 1.2 mi SW 5.8 mph - 0.01 in Rain Light Rain
8:53 AM 57.0 °F - 55.9 °F 96% 30.25 in 1.5 mi SSW 4.6 mph - 0.01 in Rain Light Rain
9:05 AM 57.2 °F - 55.4 °F 94% 30.25 in 2.5 mi SW 4.6 mph - 0.00 in Rain Light Rain
9:19 AM 57.2 °F - 55.4 °F 94% 30.26 in 3.0 mi SW 5.8 mph - 0.00 in   Overcast
9:31 AM 57.2 °F - 55.4 °F 94% 30.26 in 2.5 mi SW 4.6 mph - 0.01 in Rain Light Rain
9:41 AM 57.2 °F - 57.2 °F 100% 30.26 in 1.2 mi WSW 3.5 mph - 0.01 in Rain Light Rain
9:53 AM 57.9 °F - 57.0 °F 97% 30.26 in 1.5 mi SW 4.6 mph - 0.02 in Rain Light Rain
10:06 AM 57.2 °F - 57.2 °F 100% 30.26 in 2.5 mi WSW 5.8 mph - 0.01 in Rain Light Rain
10:16 AM 57.2 °F - 57.2 °F 100% 30.26 in 2.5 mi SW 5.8 mph - 0.01 in Rain Light Rain
10:34 AM 57.2 °F - 57.2 °F 100% 30.25 in 3.0 mi WSW 4.6 mph - 0.02 in   Overcast
10:41 AM 57.2 °F - 57.2 °F 100% 30.25 in 2.0 mi West 5.8 mph - 0.02 in Rain Light Rain
10:53 AM 57.9 °F - 55.9 °F 93% 30.25 in 3.0 mi NW 6.9 mph - 0.03 in Rain Light Rain
11:02 AM 57.2 °F - 55.4 °F 94% 30.25 in 8.0 mi NNW 8.1 mph - 0.00 in   Overcast
11:25 AM 55.4 °F - 53.6 °F 94% 30.25 in 7.0 mi NW 11.5 mph 17.3 mph 0.00 in Rain Light Rain
11:53 AM 55.0 °F - 53.1 °F 93% 30.25 in 4.0 mi NW 12.7 mph 16.1 mph 0.00 in Rain Light Rain
12:29 PM 53.6 °F - 51.8 °F 94% 30.25 in 9.0 mi NW 9.2 mph - 0.00 in   Overcast
12:43 PM 53.6 °F - 51.8 °F 94% 30.26 in 10.0 mi NW 10.4 mph 18.4 mph 0.00 in   Overcast
12:53 PM 53.1 °F - 51.1 °F 93% 30.25 in 10.0 mi NNW 8.1 mph - 0.00 in   Overcast
1:53 PM 52.0 °F - 50.0 °F 93% 30.27 in 3.0 mi NW 12.7 mph - 0.02 in Rain Light Rain
2:34 PM 51.8 °F - 48.2 °F 88% 30.28 in 7.0 mi NNW 8.1 mph - 0.01 in Rain Light Rain
2:53 PM 51.1 °F - 48.0 °F 89% 30.28 in 5.0 mi Variable 5.8 mph - 0.01 in Rain Light Rain
3:53 PM 50.0 °F - 46.9 °F 89% 30.29 in 5.0 mi North 5.8 mph - 0.00 in   Overcast
4:35 PM 48.2 °F - 46.4 °F 93% 30.31 in 6.0 mi NNW 6.9 mph 17.3 mph N/A   Overcast
4:53 PM 48.9 °F - 45.0 °F 86% 30.32 in 6.0 mi NNW 6.9 mph - N/A   Overcast
5:53 PM 48.0 °F - 44.1 °F 86% 30.34 in 6.0 mi NNW 6.9 mph - N/A   Overcast
6:15 PM 46.4 °F 42.4 °F 44.6 °F 93% 30.34 in 5.0 mi NNW 8.1 mph - N/A   Overcast
6:53 PM 46.9 °F - 44.1 °F 90% 30.34 in 5.0 mi North 8.1 mph - N/A   Overcast
7:53 PM 46.0 °F 42.5 °F 43.0 °F 89% 30.36 in 4.0 mi NNW 6.9 mph - N/A   Overcast
8:31 PM 46.4 °F 42.4 °F 42.8 °F 87% 30.37 in 5.0 mi NNW 8.1 mph - N/A   Overcast
8:53 PM 46.0 °F 43.9 °F 42.1 °F 86% 30.38 in 6.0 mi North 4.6 mph - N/A   Overcast
9:53 PM 46.0 °F 41.9 °F 39.0 °F 76% 30.37 in 10.0 mi North 8.1 mph - N/A   Overcast
10:53 PM 45.0 °F 41.8 °F 37.9 °F 76% 30.37 in 10.0 mi North 5.8 mph - N/A   Overcast
11:53 PM 44.1 °F 41.5 °F 37.9 °F 79% 30.38 in 10.0 mi North 4.6 mph - N/A   Overcast